GW7ERI-1 Weather Reports


Display with metric or nautical units.
time (UTC)temp
F
wind
direction
speed
MPH
gust
MPH
rain 1hr
in
rain 24hr
in
rain mn
in
humidity
%
barometer
mb
20171122014703 55 221 2.0 6.0 0.02 0.35 0.07 97 1001.0
20171122013802 55 225 2.0 9.0 0.03 0.35 0.07 97 1001.1
20171122012902 55 215 3.0 9.0 0.04 0.35 0.07 98 1001.3
20171122012003 55 215 3.0 9.0 0.04 0.35 0.06 97 1001.5
20171122011102 55 222 3.0 7.0 0.04 0.34 0.06 97 1001.6
20171122010203 55 222 3.0 8.0 0.06 0.34 0.06 97 1001.8
20171122005302 54 219 2.0 6.0 0.06 0.33 0.05 97 1001.9
20171122004402 54 214 2.0 7.0 0.06 0.33 0.05 97 1002.1
20171122003502 54 221 2.0 7.0 0.07 0.32 0.04 97 1002.2
20171122002602 54 227 2.0 6.0 0.07 0.31 0.03 97 1002.3
20171122001702 54 229 3.0 8.0 0.06 0.31 0.02 97 1002.5
20171122000802 54 231 3.0 7.0 0.06 0.29 0.01 97 1002.5
20171121235902 54 225 3.0 12.0 0.05 0.28 0.28 97 1002.6
20171121235002 55 233 4.0 12.0 0.04 0.28 0.28 97 1002.6
20171121234102 55 223 2.0 6.0 0.02 0.26 0.26 97 1002.8
20171121233202 55 224 3.0 10.0 0.02 0.25 0.25 97 1002.7
20171121232302 55 234 3.0 8.0 0.01 0.24 0.24 97 1002.7
20171121231402 55 235 4.0 12.0 0.01 0.24 0.24 97 1002.7
20171121230502 55 236 4.0 10.0 0.00 0.24 0.24 97 1002.7
20171121225602 55 226 4.0 13.0 0.01 0.24 0.24 97 1002.6
20171121224702 54 228 4.0 13.0 0.02 0.24 0.24 97 1002.7
20171121223802 54 231 5.0 13.0 0.02 0.24 0.24 97 1002.9
20171121222902 54 229 5.0 15.0 0.02 0.24 0.24 97 1002.8
20171121222002 54 232 4.0 12.0 0.03 0.24 0.24 97 1002.8
20171121221102 54 230 4.0 12.0 0.04 0.24 0.24 97 1003.0
20171121220202 54 226 4.0 11.0 0.06 0.24 0.24 97 1003.0
20171121215302 54 231 4.0 10.0 0.06 0.23 0.23 97 1003.3
20171121214402 54 226 4.0 10.0 0.06 0.22 0.22 97 1003.3
20171121213502 54 230 3.0 13.0 0.06 0.21 0.22 97 1003.4
20171121212602 54 223 3.0 10.0 0.08 0.21 0.21 97 1003.5
20171121211702 54 221 3.0 10.0 0.07 0.20 0.20 97 1003.5
20171121210802 54 230 3.0 10.0 0.06 0.19 0.19 97 1003.5
20171121205902 54 235 4.0 11.0 0.06 0.18 0.18 97 1003.5
20171121205002 54 225 4.0 9.0 0.06 0.17 0.17 97 1003.6
20171121204102 54 235 3.0 11.0 0.06 0.16 0.16 96 1003.5
20171121203202 54 232 4.0 11.0 0.05 0.14 0.14 96 1003.7
20171121202302 54 229 4.0 11.0 0.05 0.13 0.13 96 1003.6
20171121201402 54 224 3.0 10.0 0.06 0.13 0.13 96 1003.7
20171121200501 54 232 3.0 11.0 0.06 0.13 0.13 96 1003.9
20171121195601 54 226 4.0 11.0 0.04 0.11 0.11 96 1004.0
20171121194701 54 227 3.0 11.0 0.05 0.11 0.11 96 1004.2
20171121193801 54 222 2.0 9.0 0.05 0.10 0.10 96 1004.4
20171121192902 54 237 3.0 10.0 0.05 0.09 0.09 95 1004.4
20171121192002 54 234 3.0 8.0 0.04 0.08 0.09 95 1004.5
20171121191101 54 235 3.0 8.0 0.04 0.07 0.07 95 1004.5
20171121190201 54 236 3.0 9.0 0.05 0.07 0.07 95 1004.6
20171121185301 55 234 4.0 11.0 0.04 0.06 0.06 95 1004.7
20171121184401 54 233 2.0 9.0 0.04 0.06 0.06 94 1004.7
20171121183501 54 232 2.0 8.0 0.05 0.05 0.05 94 1004.9
20171121182601 54 244 1.0 6.0 0.04 0.04 0.04 95 1004.9
20171121181701 54 232 1.0 4.0 0.04 0.04 0.04 95 1004.9
20171121180801 54 214 2.0 7.0 0.03 0.03 0.03 95 1005.0
20171121175901 55 222 2.0 7.0 0.02 0.02 0.02 94 1005.1
20171121175001 55 227 2.0 9.0 0.02 0.02 0.02 94 1005.1
20171121174101 55 217 3.0 9.0 0.01 0.01 0.01 93 1005.4
20171121173201 55 212 3.0 8.0 0.00 0.00 0.00 91 1005.4
20171121171401 55 210 4.0 13.0 0.00 0.00 0.00 90 1005.4
20171121170501 55 211 4.0 10.0 0.00 0.00 0.00 90 1005.4
20171121165601 55 217 3.0 9.0 0.00 0.00 0.00 90 1005.6
20171121164701 55 214 3.0 9.0 0.00 0.00 0.00 90 1005.7
20171121162901 55 218 3.0 7.0 0.00 0.00 0.00 90 1005.8
20171121162001 55 210 3.0 8.0 0.00 0.00 0.00 90 1005.9
20171121161101 55 221 3.0 7.0 0.00 0.00 0.00 90 1005.9
20171121160201 55 210 2.0 7.0 0.00 0.00 0.00 90 1006.1
20171121154401 55 224 3.0 8.0 0.00 0.00 0.00 89 1006.2
20171121153501 55 221 3.0 9.0 0.00 0.00 0.00 89 1006.2
20171121152601 55 219 3.0 9.0 0.00 0.00 0.00 89 1006.4
20171121151701 55 224 3.0 9.0 0.00 0.00 0.00 89 1006.5
20171121150801 55 225 3.0 9.0 0.00 0.00 0.00 88 1006.7
20171121145001 55 221 3.0 8.0 0.00 0.00 0.00 89 1006.8
20171121144100 55 227 2.0 8.0 0.00 0.00 0.00 89 1006.8
20171121143200 55 225 2.0 8.0 0.00 0.00 0.00 88 1007.0
20171121142300 55 227 2.0 8.0 0.00 0.00 0.00 88 1007.1
20171121141400 55 224 1.0 7.0 0.00 0.00 0.00 88 1007.1
20171121140500 55 237 1.0 6.0 0.00 0.00 0.00 87 1007.2
20171121135600 54 242 1.0 6.0 0.00 0.01 0.00 88 1007.4
20171121134700 54 211 1.0 7.0 0.00 0.01 0.00 88 1007.6
20171121133800 54 223 1.0 3.0 0.00 0.02 0.00 89 1007.7
20171121132900 54 235 1.0 4.0 0.00 0.02 0.00 89 1007.9
20171121131100 54 227 1.0 5.0 0.00 0.02 0.00 89 1008.3
20171121130200 54 227 1.0 7.0 0.00 0.02 0.00 88 1008.4
20171121123500 54 229 2.0 11.0 0.00 0.02 0.00 86 1008.7
20171121122600 54 235 3.0 8.0 0.00 0.02 0.00 86 1008.8
20171121121700 54 235 2.0 9.0 0.00 0.02 0.00 86 1009.0
20171121120800 55 235 2.0 6.0 0.00 0.02 0.00 85 1009.1
20171121115900 55 212 2.0 8.0 0.00 0.02 0.00 85 1009.3
20171121115001 55 230 2.0 8.0 0.00 0.02 0.00 86 1009.3
20171121114100 54 220 2.0 7.0 0.00 0.02 0.00 87 1009.5
20171121113200 54 230 1.0 4.0 0.00 0.02 0.00 87 1009.7
20171121112300 54 222 1.0 6.0 0.00 0.02 0.00 87 1009.8
20171121111400 54 221 2.0 7.0 0.00 0.02 0.00 87 1009.8
20171121110500 53 238 1.0 7.0 0.00 0.02 0.00 87 1009.9
20171121105600 53 232 1.0 7.0 0.00 0.02 0.00 88 1010.0
20171121104700 53 233 2.0 6.0 0.00 0.02 0.00 88 1010.1
20171121103800 53 234 3.0 7.0 0.00 0.02 0.00 88 1010.3
20171121102000 53 229 2.0 10.0 0.00 0.03 0.00 88 1010.6
20171121101100 53 231 2.0 9.0 0.00 0.03 0.00 88 1010.5
20171121100200 53 234 1.0 6.0 0.00 0.03 0.00 88 1010.6
20171121095300 53 224 2.0 7.0 0.00 0.03 0.00 88 1010.7
20171121094400 53 227 2.0 9.0 0.00 0.03 0.00 88 1010.6
20171121093459 53 228 2.0 7.0 0.00 0.03 0.00 89 1010.5
20171121092559 53 230 2.0 8.0 0.00 0.03 0.00 88 1010.4
20171121091700 53 239 2.0 9.0 0.00 0.03 0.00 89 1010.5
20171121090759 53 235 2.0 11.0 0.00 0.03 0.00 89 1010.5
20171121085859 53 225 2.0 7.0 0.00 0.03 0.00 90 1010.6
20171121084959 53 231 3.0 9.0 0.00 0.03 0.00 91 1010.6
20171121084059 53 234 1.0 5.0 0.00 0.03 0.00 91 1010.5
20171121083159 53 218 2.0 7.0 0.00 0.03 0.00 91 1010.5
20171121082259 53 226 2.0 7.0 0.00 0.03 0.00 91 1010.7
20171121081359 53 232 2.0 7.0 0.00 0.03 0.00 91 1010.8
20171121080459 53 235 2.0 8.0 0.00 0.03 0.00 91 1010.7
20171121075559 53 240 2.0 7.0 0.00 0.04 0.00 92 1010.8
20171121074659 53 237 3.0 8.0 0.00 0.04 0.00 92 1010.5
20171121073800 53 240 2.0 9.0 0.00 0.04 0.00 92 1010.6
20171121072859 53 240 2.0 6.0 0.00 0.04 0.00 93 1010.6
20171121071959 53 251 2.0 8.0 0.00 0.04 0.00 92 1010.7
20171121071059 53 237 3.0 10.0 0.00 0.04 0.00 92 1010.7
20171121070159 53 244 3.0 8.0 0.00 0.05 0.00 92 1010.6
20171121065259 53 240 3.0 8.0 0.00 0.05 0.00 92 1010.8
20171121064359 53 252 2.0 8.0 0.00 0.05 0.00 92 1011.0
20171121063459 53 236 2.0 7.0 0.00 0.05 0.00 92 1010.9
20171121062559 53 234 2.0 8.0 0.00 0.05 0.00 92 1010.7
20171121061659 53 231 2.0 8.0 0.00 0.05 0.00 92 1010.8
20171121060759 53 237 3.0 9.0 0.00 0.05 0.00 92 1011.0
20171121055859 53 235 3.0 9.0 0.00 0.05 0.00 92 1011.0
20171121054959 53 234 2.0 12.0 0.00 0.05 0.00 93 1010.8
20171121054059 53 232 2.0 8.0 0.00 0.05 0.00 93 1010.9
20171121053159 53 227 1.0 5.0 0.00 0.05 0.00 93 1011.0
20171121052259 53 229 1.0 6.0 0.00 0.05 0.00 93 1011.2
20171121051359 53 227 2.0 7.0 0.00 0.05 0.00 93 1011.0
20171121050459 53 226 2.0 6.0 0.00 0.05 0.00 93 1011.1
20171121045559 53 231 3.0 9.0 0.00 0.05 0.00 93 1011.0
20171121044659 53 234 3.0 9.0 0.00 0.05 0.00 93 1011.2
20171121043759 53 238 2.0 8.0 0.00 0.05 0.00 93 1011.3
20171121042859 53 231 2.0 7.0 0.00 0.05 0.00 93 1011.3
20171121041959 53 235 2.0 8.0 0.00 0.05 0.00 93 1011.5
20171121041058 53 236 3.0 9.0 0.00 0.05 0.00 93 1011.4
20171121040158 53 223 3.0 11.0 0.00 0.05 0.00 93 1011.3
20171121035259 53 226 4.0 9.0 0.00 0.05 0.00 93 1011.2
20171121034358 53 233 4.0 12.0 0.00 0.05 0.00 93 1011.3
20171121033459 53 230 4.0 10.0 0.00 0.05 0.00 93 1011.2
20171121032558 53 231 4.0 10.0 0.00 0.05 0.00 93 1011.3
20171121031658 53 233 4.0 10.0 0.00 0.05 0.00 93 1011.4
20171121030758 53 238 4.0 10.0 0.00 0.05 0.00 93 1011.6
20171121025858 53 236 3.0 10.0 0.00 0.05 0.00 93 1011.6
20171121024958 53 233 3.0 11.0 0.00 0.05 0.00 93 1011.7
20171121024058 53 233 3.0 8.0 0.00 0.05 0.00 93 1011.8
20171121023158 53 231 4.0 9.0 0.00 0.05 0.00 93 1011.8
20171121022258 53 235 2.0 7.0 0.00 0.05 0.00 93 1011.9
20171121021358 53 233 2.0 10.0 0.00 0.05 0.00 94 1011.7
20171121020458 53 231 3.0 8.0 0.00 0.05 0.00 94 1011.8
20171121015558 53 229 3.0 8.0 0.00 0.05 0.00 94 1011.9